WetterOnline ( https://www.wetteronline.de )

Wetter aktuell Wismar

Aktuelles Wetter: Boltenhagen (17m)

6-stündlich | Neueste Meldungen
Ortszeit Temperatur Wetter
Sa, 13.08. 14:00 23.6° C fast wolkenlos
Sa, 13.08. 8:00 21.0° C wolkenlos
Sa, 13.08. 2:00 18.8° C wolkenlos
Fr, 12.08. 20:00 21.5° C wolkenlos
Fr, 12.08. 14:00 22.7° C wolkenlos
Fr, 12.08. 8:00 19.4° C wolkenlos
Fr, 12.08. 2:00 19.5° C wolkenlos
Do, 11.08. 20:00 21.0° C wolkenlos
Ortszeit Temperatur Wetter
Sa, 13.08. 14:00 23.6° C fast wolkenlos
Sa, 13.08. 13:50 23.6° C fast wolkenlos
Sa, 13.08. 13:40 23.1° C leicht bewölkt
Sa, 13.08. 13:30 22.7° C wolkig
Sa, 13.08. 13:20 22.7° C wolkig
Sa, 13.08. 13:10 23.2° C leicht bewölkt
Sa, 13.08. 13:00 23.0° C leicht bewölkt
Sa, 13.08. 12:30 23.3° C leicht bewölkt
Sa, 13.08. 12:00 22.7° C leicht bewölkt
Sa, 13.08. 11:30 22.1° C leicht bewölkt
Sa, 13.08. 11:00 22.3° C leicht bewölkt
Ortszeit Relative Feuchte Sichtweite
Sa, 13.08. 14:00 76% 60 km
Sa, 13.08. 8:00 65% >70 km
Sa, 13.08. 2:00 66% 60 km
Fr, 12.08. 20:00 77% 50 km
Fr, 12.08. 14:00 78% 55 km
Fr, 12.08. 8:00 71% 55 km
Fr, 12.08. 2:00 64% >70 km
Do, 11.08. 20:00 74% 60 km
Ortszeit Relative Feuchte Sichtweite
Sa, 13.08. 14:00 76% 60 km
Sa, 13.08. 13:50 76% -
Sa, 13.08. 13:40 76% -
Sa, 13.08. 13:30 78% 35 km
Sa, 13.08. 13:20 78% -
Sa, 13.08. 13:10 76% -
Sa, 13.08. 13:00 75% 55 km
Sa, 13.08. 12:30 68% 50 km
Sa, 13.08. 12:00 71% 50 km
Sa, 13.08. 11:30 75% 30 km
Sa, 13.08. 11:00 75% 55 km
Ortszeit Niederschlagsmenge Niederschlagsart
Sa, 13.08. 14:00 0.0 l/m2 in 6 Std. -
Sa, 13.08. 8:00 0.0 l/m2 in 12 Std. -
Sa, 13.08. 2:00 0.0 l/m2 in 6 Std. -
Fr, 12.08. 20:00 0.0 l/m2 in 12 Std. -
Fr, 12.08. 14:00 0.0 l/m2 in 6 Std. -
Fr, 12.08. 8:00 0.0 l/m2 in 12 Std. -
Fr, 12.08. 2:00 0.0 l/m2 in 6 Std. -
Do, 11.08. 20:00 0.0 l/m2 in 12 Std. -
Ortszeit Niederschlagsmenge Niederschlagsart
Sa, 13.08. 14:00 0.0 l/m2 in 1 Std. -
Sa, 13.08. 13:50 keine Meldung -
Sa, 13.08. 13:40 keine Meldung -
Sa, 13.08. 13:30 0.0 l/m2 in 1 Std. -
Sa, 13.08. 13:20 keine Meldung -
Sa, 13.08. 13:10 keine Meldung -
Sa, 13.08. 13:00 0.0 l/m2 in 1 Std. -
Sa, 13.08. 12:30 0.0 l/m2 in 1 Std. -
Sa, 13.08. 12:00 0.0 l/m2 in 1 Std. -
Sa, 13.08. 11:30 0.0 l/m2 in 1 Std. -
Sa, 13.08. 11:00 0.0 l/m2 in 1 Std. -
Ortszeit Stärke Spitze Richtung
km/h Bft. km/h Grad Sektor
Sa, 13.08. 14:00 13 3 22 10° N
Sa, 13.08. 8:00 7 2 11 60° NO
Sa, 13.08. 2:00 7 2 36 130° SO
Fr, 12.08. 20:00 24 4 37 50° NO
Fr, 12.08. 14:00 22 4 25 30° NO
Fr, 12.08. 8:00 14 3 22 100° O
Fr, 12.08. 2:00 11 2 25 120° SO
Do, 11.08. 20:00 14 3 25 50° NO
Ortszeit Stärke Spitze Richtung
km/h Bft. km/h Grad Sektor
Sa, 13.08. 14:00 13 3 22 10° N
Sa, 13.08. 13:50 13 3 - 10° N
Sa, 13.08. 13:40 15 3 - 360° N
Sa, 13.08. 13:30 13 3 20 20° N
Sa, 13.08. 13:20 13 3 - 20° N
Sa, 13.08. 13:10 14 3 - 20° N
Sa, 13.08. 13:00 13 3 19 10° N
Sa, 13.08. 12:30 11 2 14 20° N
Sa, 13.08. 12:00 9 2 13 30° NO
Sa, 13.08. 11:30 11 2 11 30° NO
Sa, 13.08. 11:00 7 2 11 40° NO
Ortszeit Untergrenze Bedeckung Gattung
total tief tief mittel hoch
Sa, 13.08. 14:00 4800 m 1/8 1/8 - - -
Sa, 13.08. 8:00 - 0/8 0/8 - - -
Sa, 13.08. 2:00 - 0/8 0/8 - - -
Fr, 12.08. 20:00 - 0/8 0/8 - - -
Fr, 12.08. 14:00 - 0/8 0/8 - - -
Fr, 12.08. 8:00 - 0/8 0/8 - - -
Fr, 12.08. 2:00 - 0/8 0/8 - - -
Do, 11.08. 20:00 - 0/8 0/8 - - -
Ortszeit Bedeckungsgrad in Achtel und Wolkenuntergrenze
Sa, 13.08. 14:00 1(4800m)
Sa, 13.08. 13:50 1(4800m)
Sa, 13.08. 13:40 3
Sa, 13.08. 13:30 5(4800m)
Sa, 13.08. 13:20 5(4800m)
Sa, 13.08. 13:10 3
Sa, 13.08. 13:00 4(9000m)
Sa, 13.08. 12:30 4(9000m) 6(10500m)
Sa, 13.08. 12:00 3(9000m)
Sa, 13.08. 11:30 3(9000m)
Sa, 13.08. 11:00 7(9000m)
Ortszeit Luftdruck NN (hPa) Tendenz (hPa in 3 Std.)
Sa, 13.08. 14:00 1020 - 0,7
Sa, 13.08. 8:00 1020 - 0,3
Sa, 13.08. 2:00 1021 + 0,2
Fr, 12.08. 20:00 1020 - 1,0
Fr, 12.08. 14:00 1022 - 0,9
Fr, 12.08. 8:00 1023 0,0
Fr, 12.08. 2:00 1023 0,0
Do, 11.08. 20:00 1023 - 1,2
Ortszeit Luftdruck NN (hPa) Tendenz (hPa in 3 Std.)
Sa, 13.08. 14:00 1020 - 0,7
Sa, 13.08. 13:50 1020 keine Meldung
Sa, 13.08. 13:40 1020 keine Meldung
Sa, 13.08. 13:30 1020 - 0,4
Sa, 13.08. 13:20 1020 keine Meldung
Sa, 13.08. 13:10 1020 keine Meldung
Sa, 13.08. 13:00 1020 - 0,3
Sa, 13.08. 12:30 1020 - 0,1
Sa, 13.08. 12:00 1020 + 0,4
Sa, 13.08. 11:30 1021 + 0,5
Sa, 13.08. 11:00 1021 + 0,4
Ortszeit Schneehöhe (cm)
Sa, 13.08. 14:00 0
Sa, 13.08. 8:00 0
Sa, 13.08. 2:00 0
Fr, 12.08. 20:00 0
Fr, 12.08. 14:00 0
Fr, 12.08. 8:00 0
Fr, 12.08. 2:00 0
Do, 11.08. 20:00 0
Ortszeit Schneehöhe (cm)
Sa, 13.08. 14:00 0
Sa, 13.08. 13:50 0
Sa, 13.08. 13:40 0
Sa, 13.08. 13:30 0
Sa, 13.08. 13:20 0
Sa, 13.08. 13:10 0
Sa, 13.08. 13:00 0
Sa, 13.08. 12:30 0
Sa, 13.08. 12:00 0
Sa, 13.08. 11:30 0
Sa, 13.08. 11:00 0
Link zu dieser Seite / Seite empfehlen

Das Wetter in ...